Regional Weather Roundup
Issued by NWS

Home | Current Version | Previous Version | Graphics & Text | Print | Product List | Glossary On
Versions: 1 2 3 4 5 6 7 8 9 10 11 12 13 14 15 16 17 18 19 20 21 22 23 24 25 26 27 28 29 30 31 32 33 34 35 36 37 38 39 40 41 42 43 44 45 46 47 48 49 50
000
ASUS45 KSLC 011110
RWRUT

UTAH REGIONAL WEATHER ROUNDUP
NATIONAL WEATHER SERVICE SALT LAKE CITY UT
500 AM MDT WED JUL 01 2015

UTZ001>011-023>025-011200-

NORTHERN UTAH

CITY           SKY/WX    TMP DP  RH WIND       PRES   REMARKS
BRIGHAM CITY   MOCLDY    74  53  48 CALM      30.07R
HILL AFB       PTCLDY    71  55  56 E10       30.10R
LOGAN          CLEAR     67  55  65 SW5       30.08S
OGDEN          PTCLDY    71  54  54 S7        30.07R
PROVO AIRPORT  MOCLDY    73  55  53 E7        30.09S
SALT LAKE CITY PTCLDY    77  55  46 N8        30.05R
VERNAL         CLOUDY    65  53  65 W3        30.12F
WENDOVER       MOCLDY    75  48  38 CALM      30.06F
HEBER CITY     MOCLDY    66  54  63 NE3       30.18R
WEST JORDAN    CLEAR     73  54  49 E5        30.09R

$$

UTZ012>022-026-027-011200-

SOUTHERN/CENTRAL UTAH

CITY           SKY/WX    TMP DP  RH WIND       PRES   REMARKS
BLANDING       CLOUDY    72  41  33 NE8       30.18S
BRYCE CANYON   PTCLDY    55  46  71 N5        30.33R
CEDAR CITY     MOCLDY    65  45  48 S6        30.16S
DELTA          MOCLDY    70  57  62 E5        30.10S
HANKSVILLE     MOCLDY    70  46  43 NE3       30.05R
MILFORD        PTCLDY    68  46  45 N7        30.12R
MOAB/CYNLANDS  CLEAR     75  43  31 CALM      30.02R
PRICE          CLOUDY    76  45  33 W3        30.14S
ST GEORGE      PTSUNNY   86  45  23 SE7       29.92R
KANAB          PTCLDY    64  46  52 E7        30.12S

$$

REGIONAL REPORTS     COLORADO/ARIZONA

CITY           SKY/WX    TMP DP  RH WIND       PRES   REMARKS
CRAIG, CO      MOCLDY    53  47  79 CALM      30.23R
GRAND JUNCTION PTCLDY    66  45  46 NE5       30.08R
RIFLE          MOCLDY    64  46  52 CALM      30.16R
MONTROSE       PTCLDY    64  46  52 S6        30.16R
CORTEZ         CLEAR     67  47  48 VRB6      30.15R
PAGE, AZ       MOCLDY    81  45  28 CALM      29.99S
GRAND CANYON   PTCLDY    56  54  93 CALM      30.21S
KINGMAN        PTCLDY    76  55  48 SW10      30.00S
FLAGSTAFF      PTCLDY    63  55  75 W5        30.29R

$$

REGIONAL REPORTS    NEVADA/IDAHO/WYOMING

CITY           SKY/WX    TMP DP  RH WIND       PRES   REMARKS
LAS VEGAS, NV  MOCLDY    86  59  39 S24G38    29.84R
ELY            CLOUDY    59  52  77 SE7       30.25R
ELKO           MOCLDY    64  55  72 NE5       30.16S
POCATELLO, ID  CLEAR     64  57  78 S6        30.09S
BURLEY         MOCLDY    68  56  65 CALM      30.05R
EVANSTON, WY   MOCLDY    64  47  53 SE8       30.28F
ROCK SPRINGS   CLEAR     61  52  72 S5        30.25F
KEMMERER       PTCLDY    63  45  51 CALM      30.30S

$$



USA.gov is the U.S. government's official web portal to all federal, state and local government web resources and services.